{"data":{"norad_id":52995,"intl_designator":"2022-076K","name":"STARLINK-4296","alt_names":[],"object_type":"PAYLOAD","status":"ACTIVE","operator":null,"country":"US","launch_date":"2022-07-07","launch_site_code":"AFETR","launch_vehicle":null,"mission":null,"orbit_class":"UNKNOWN","rcs_meters":null,"size_class":null,"mass_kg":null,"dimensions":null,"purposes":["comms"],"wikipedia_slug":null,"has_3d_model":false,"image_url":null,"decayed_at":null,"tle_current":{"epoch":"2026-09-19T18:53:31.112160Z","epoch_age_seconds":130571,"freshness":"FRESH","line1":"1 52995U 22076K   26262.78716565  .00000796  00000+0  33728-4 0  9998","line2":"2 52995  53.1597 286.8085 0001241  88.8902 271.2243 15.35397311232367","mean_motion":15.35397311,"eccentricity":0.0001241,"inclination_deg":53.1597,"raan_deg":286.8085,"arg_perigee_deg":88.8902,"mean_anomaly_deg":271.2243,"bstar":3.3728e-5,"rev_number":23236,"period_min":93.786799656574,"perigee_km":458.89204574032,"apogee_km":460.58920696718,"semimajor_km":6837.8776263537,"source":"CELESTRAK","updated_at":"2026-09-20T09:00:40.140377Z"}}}